Port Lions, AK (99550)

7:02 PM AKDT on May 28, 2015 (GMT -0800)
Kodiak | | Change Station
CLOSE
Current Station
Airport
Location: Kodiak,
Elevation: 112 ft
Nearby Weather Stations

Elev 112 ft 57.75 °N, 152.49 °W | Updated 9 minutes ago

Mostly Cloudy
Mostly Cloudy
56 °F
Feels Like 56 °F
N
6
Wind Variable Wind from East

Today
High -- | Low -- °F
--% Chance of Precip.
Yesterday
High -- | Low -- °F
Precip. -- in
5:26 AM 10:54 PM
Waxing Gibbous, 80% visible
Pressure 30.38 in
Visibility 10.0 miles
Clouds Mostly Cloudy 25000 ft
Dew Point 40 °F
Humidity 55%
Rainfall 0.00 in
Snow Depth Not available.
UV 1 out of 12
Pollen Not available.
Air Quality Not available.
Flu Activity Local Activity
METAR PADQ 290253Z 08005KT 10SM BKN250 13/04 A3037 RMK AO2 SLP286 T01330044 58006

More Conditions Fewer Conditions

Pressure 30.38 in
Visibility 10.0 miles
Clouds Mostly Cloudy 25000 ft
Dew Point 40 °F
Humidity 55%
Rainfall 0.00 in
Snow Depth Not available.
UV 1 out of 12
Pollen Not available.
Air Quality Not available.
Flu Activity Local Activity
METAR PADQ 290253Z 08005KT 10SM BKN250 13/04 A3037 RMK AO2 SLP286 T01330044 58006

More Conditions Fewer Conditions

10-Day Weather Forecast

Almanac

Astronomy

May. 28, 2015 Rise Set
Actual Time
Civil Twilight
Nautical Twilight
Astronomical Twilight
Moon
Length of Visible Light
Length of Day
Tomorrow will be .
, % of the Moon is Illuminated

Today's Extremes

State Highs State Lows

Community

WunderPhotos

Upload Photos

1,825,149 photos uploaded!

WunderBlogs® & News

Nearby

Air Quality

  Air Quality AQ Index Pollutant
Not available.

Snow Depth

Station Depth Elevation

Earthquake Activity

City Distance Mag. Time & Date
Minimum magnitude displayed is 2.5.

Coastal Water Temperatures

Place Temperature

Stations

Nearby Weather Stations

Station Location Temp. Windchill Dew Point Humidity Wind Precip. Elev Updated Type